Wind_Speed
45 46 48 49 50 50 51 51 50 49 46 41 34 28 23 19 15 12 9 7 6 7 11 15 18 20 22 23 24 26 27 28 28 29 29 30 31 33 35 38 39 39 37 34 33 38 43 43 43 45 47 46 45 44 42 41 42 42 42 42 41 40 40 39 39 39 39 37 36 35 33 32 31 31 32 32 32 32 32 32 31 31 33 33 31 28
44 45 46 47 48 49 50 50 50 49 47 45 40 34 28 22 18 14 10 7 6 7 10 13 17 20 22 24 25 26 27 28 29 31 32 32 32 33 36 38 41 41 39 37 35 37 42 45 46 46 48 48 46 46 45 43 43 43 44 43 42 41 40 40 39 39 38 38 37 36 34 33 32 32 33 34 34 33 34 34 33 33 33 34 32 30
42 43 44 45 46 47 48 49 49 48 47 46 44 41 35 28 22 17 14 11 8 8 9 12 15 18 22 24 25 26 28 29 30 31 33 33 33 34 36 39 42 43 41 39 38 38 42 47 48 48 49 49 49 48 47 46 45 44 44 45 44 42 42 41 41 40 40 40 39 38 37 35 34 33 33 34 35 35 35 35 36 35 35 36 35 33
40 41 42 43 44 45 46 47 47 46 46 45 45 43 41 36 29 22 18 15 13 12 11 12 14 17 20 23 25 27 29 30 31 32 33 34 35 36 38 40 43 45 44 42 41 40 41 46 49 50 50 50 50 50 49 49 48 46 46 46 46 45 44 43 42 42 42 42 41 40 39 38 37 35 34 35 36 37 37 36 36 36 37 37 37 35
39 40 41 41 42 43 44 45 45 46 45 45 44 44 42 40 35 29 23 18 15 14 14 14 15 17 20 22 23 26 28 31 33 34 35 36 37 38 39 41 43 46 47 47 45 43 42 44 48 51 52 51 51 51 51 50 50 50 49 48 48 47 46 45 44 43 42 42 42 42 41 40 39 37 36 35 36 37 37 37 37 37 38 38 38 38
37 39 39 40 40 41 42 43 43 44 45 44 44 43 43 41 38 33 28 22 18 15 15 15 15 18 21 22 23 24 27 29 32 35 37 38 38 39 40 41 43 46 49 50 48 47 45 44 46 50 53 52 52 51 52 52 52 52 52 51 50 49 48 47 47 45 44 43 42 41 41 41 40 39 39 38 37 37 38 38 38 38 39 40 41 41
36 37 38 38 39 39 41 41 42 42 43 43 43 43 42 41 39 36 32 27 22 18 15 15 15 17 21 22 23 24 26 28 30 33 36 38 39 40 41 42 44 46 49 51 51 51 49 47 46 48 52 54 53 52 53 54 53 53 53 53 52 51 51 50 50 48 47 45 44 42 41 41 41 41 41 41 41 41 40 40 40 40 40 41 43 43
35 36 37 38 38 38 39 40 41 41 41 42 42 43 42 41 40 38 35 31 26 21 17 16 16 17 20 22 23 24 26 28 29 31 33 36 38 40 42 43 45 47 49 52 53 54 53 52 49 49 51 54 56 55 54 55 55 55 55 54 54 54 54 54 53 52 50 48 47 46 44 43 42 42 43 44 44 44 44 44 43 42 43 43 44 45
35 36 36 37 37 37 37 39 40 40 40 40 40 41 42 42 41 40 38 35 31 27 21 17 16 16 18 20 22 24 27 28 30 31 32 34 36 39 41 43 45 47 49 51 53 55 56 56 54 53 52 53 55 57 56 56 56 57 57 56 56 56 56 56 56 55 54 53 51 50 48 47 45 44 45 45 46 46 47 47 46 46 45 45 45 47
35 35 36 36 36 36 36 38 39 39 39 39 39 39 40 41 41 41 40 39 36 33 28 23 19 17 19 20 20 22 25 27 29 31 32 34 36 38 40 42 44 47 49 51 53 55 57 59 58 57 56 55 56 57 58 59 58 59 59 59 58 58 57 57 57 57 57 57 56 54 53 52 50 48 47 47 47 48 49 49 50 49 48 47 47 47
35 35 35 35 35 35 36 37 38 39 39 39 39 39 39 40 40 40 40 40 39 38 35 30 25 21 20 21 21 22 23 24 26 28 30 33 36 38 39 40 43 45 48 50 53 55 57 60 61 61 60 59 58 58 59 61 61 61 61 61 61 60 59 59 59 59 59 59 59 58 56 55 54 52 51 50 50 50 51 51 52 52 52 51 50 50
34 35 35 35 34 34 35 37 38 38 38 39 39 38 39 40 40 40 40 40 40 39 38 35 31 27 24 22 21 21 22 23 24 26 28 30 33 35 37 39 41 43 46 48 51 54 56 59 61 63 63 63 62 62 61 62 62 63 64 64 64 63 62 61 60 61 61 61 61 60 59 58 57 56 54 53 52 52 53 53 54 55 55 55 54 53
33 35 35 35 34 34 35 37 38 38 38 39 39 39 39 40 41 41 41 40 40 40 39 38 35 33 30 26 23 20 20 22 23 24 26 29 31 33 34 36 38 41 44 46 49 52 55 57 59 62 64 65 66 66 65 65 65 65 66 66 66 66 65 64 63 63 62 62 63 62 61 60 59 58 57 56 55 55 55 55 56 57 58 58 58 57
33 35 35 35 35 35 36 37 38 39 39 40 40 41 41 42 43 43 42 41 41 40 39 38 36 35 34 31 26 22 20 21 23 23 24 26 29 31 33 34 35 38 41 43 46 48 51 55 57 60 62 65 67 68 68 68 68 68 68 68 69 68 68 67 67 67 66 65 65 64 64 63 62 61 60 59 58 57 57 57 58 59 60 60 60 60
34 35 36 36 37 37 38 38 39 40 40 41 42 42 42 43 44 44 44 43 43 42 41 39 37 36 35 33 29 25 23 22 22 23 22 24 27 29 31 33 34 35 37 40 42 45 48 51 54 57 59 63 66 68 69 70 71 71 71 71 71 70 70 70 70 70 70 70 69 67 66 66 65 65 64 63 62 60 60 60 60 61 62 63 63 62
35 36 37 38 39 39 40 40 41 41 41 42 42 41 41 43 44 44 44 43 44 44 44 43 40 38 36 34 31 28 26 24 24 23 22 23 25 27 29 31 33 34 35 37 39 42 44 46 49 53 56 59 62 65 67 70 71 73 73 74 74 73 73 72 72 72 72 73 73 72 71 70 69 68 67 66 65 64 64 63 63 64 64 65 65 64
36 37 38 39 40 41 41 42 42 43 42 41 41 41 41 42 43 43 42 42 43 44 45 45 44 41 38 35 33 30 28 28 27 26 24 24 24 25 27 29 31 32 33 35 37 40 42 44 45 48 51 54 57 60 63 66 69 71 73 74 75 76 76 76 75 75 75 75 75 75 75 74 73 72 70 69 69 68 68 67 67 67 67 68 68 67
37 38 39 41 41 41 42 42 43 44 43 42 41 41 42 43 44 44 43 42 42 43 44 46 46 45 41 37 34 31 31 31 31 30 28 27 26 25 26 28 30 32 33 34 35 37 40 41 43 44 46 49 52 54 57 60 64 67 70 73 75 77 79 80 80 79 78 78 78 77 77 77 76 75 74 73 72 72 72 71 71 70 70 70 69 69
38 39 41 42 42 42 43 43 43 44 44 44 43 42 44 45 47 47 46 45 44 43 42 43 45 47 45 40 35 32 32 33 33 33 32 30 29 28 27 27 28 30 32 33 34 36 37 38 40 41 43 45 47 50 52 55 58 61 65 69 72 74 77 80 82 83 83 82 80 80 79 79 79 78 77 77 77 76 75 74 74 74 73 72 71 71
38 39 41 44 44 44 44 44 44 44 44 45 45 44 46 47 49 50 50 48 46 44 42 41 41 46 47 44 38 34 33 34 35 34 34 32 31 30 29 29 28 28 30 31 33 35 36 36 37 39 41 42 44 46 48 50 53 56 59 63 67 70 73 76 79 83 85 86 85 83 81 80 80 81 81 81 81 80 80 79 78 78 77 76 76 75
39 38 40 43 45 45 45 46 45 45 45 45 46 46 47 48 50 52 52 51 49 46 44 41 39 43 48 46 41 36 35 36 35 35 35 34 33 32 32 32 30 29 29 29 32 34 35 35 35 37 38 40 41 43 44 46 48 51 53 56 60 64 67 71 74 77 81 84 87 87 86 84 83 82 82 83 84 85 85 84 84 83 82 82 81 81
41 41 42 42 43 45 46 47 46 46 46 46 46 47 48 50 51 53 54 54 52 48 46 43 38 41 48 48 44 41 38 37 36 36 35 34 33 34 34 34 33 31 29 29 30 33 35 35 35 36 37 38 39 40 41 42 44 46 49 51 54 57 60 64 67 71 74 77 80 83 86 87 87 86 86 85 86 88 88 89 89 88 87 86 85 85
45 44 44 42 41 43 45 47 48 48 47 47 47 48 50 51 53 55 56 56 55 51 48 46 41 40 47 49 46 46 43 39 37 37 36 34 34 35 36 35 34 33 31 29 30 32 34 34 34 36 37 37 37 38 39 39 40 42 44 46 49 51 54 57 61 65 69 73 75 77 79 81 82 83 86 88 88 89 90 91 91 90 90 90 89 89
47 46 44 42 40 41 43 46 49 51 50 48 49 50 51 53 55 56 58 59 58 54 50 49 44 43 49 50 49 48 46 42 39 38 36 34 34 36 38 37 36 35 33 30 30 32 35 35 34 35 37 37 36 36 37 37 38 39 40 41 43 45 48 52 55 58 61 64 67 71 75 78 76 71 72 80 84 86 88 89 89 89 89 90 90 89
48 47 44 41 40 40 42 44 47 49 51 51 52 52 53 55 57 58 59 61 60 56 55 54 49 48 51 52 51 51 47 43 41 39 37 35 36 37 39 38 37 36 35 32 30 32 35 36 33 34 37 37 36 36 36 36 38 38 38 39 40 42 44 46 48 50 51 51 53 57 63 70 72 66 63 67 72 77 81 83 86 88 88 88 89 88
49 47 45 42 42 41 43 44 45 46 49 52 54 54 54 56 58 59 60 61 61 60 60 58 54 53 53 53 53 53 48 43 41 39 37 37 39 40 39 39 37 36 35 32 30 31 34 36 34 33 35 37 36 36 35 36 37 36 36 38 38 38 39 40 42 41 39 42 46 49 49 54 63 68 67 65 64 66 70 76 81 85 86 87 88 88
49 48 47 46 45 45 45 45 45 45 47 50 54 55 56 58 60 60 61 62 64 64 62 58 57 56 55 54 55 55 50 44 40 38 37 39 41 42 41 40 39 37 35 31 29 30 33 35 34 33 35 36 36 35 35 35 35 35 35 36 35 34 34 36 35 29 27 35 44 47 47 49 56 65 68 65 62 61 64 70 75 77 80 82 84 85
50 49 49 48 48 47 46 45 46 46 47 49 52 55 58 60 61 61 62 66 69 67 62 59 58 56 54 55 58 57 51 44 39 37 38 40 42 42 42 43 41 39 35 31 29 29 32 34 34 33 34 35 35 34 34 34 34 34 34 33 32 32 32 33 33 30 31 38 45 48 49 51 55 61 64 64 62 61 62 66 69 70 71 72 74 76
53 51 50 50 50 49 48 47 47 48 48 49 51 55 59 61 62 62 65 70 72 69 63 60 58 56 55 55 59 59 52 43 39 39 40 41 42 42 43 45 44 41 37 32 29 29 31 33 33 33 33 34 34 34 33 33 33 33 33 32 31 32 31 31 34 36 38 43 48 51 52 52 55 60 63 65 64 61 62 65 66 66 66 66 66 67
55 53 52 52 51 50 50 49 49 49 49 50 52 55 58 61 64 66 69 73 74 71 65 60 57 56 55 56 59 58 52 43 39 40 41 42 43 43 43 45 45 44 40 35 31 30 30 32 32 32 33 33 33 33 32 32 32 33 33 31 30 32 30 29 33 38 42 48 52 54 55 55 57 60 64 65 66 66 67 66 64 63 63 62 61 60
58 57 55 53 52 51 51 50 50 50 50 51 53 56 58 62 67 70 72 74 76 73 68 62 57 54 55 59 60 56 51 45 40 40 42 44 44 44 44 45 44 44 42 38 34 32 31 32 33 33 34 33 32 32 32 31 32 33 32 31 30 30 29 28 31 37 42 48 52 54 55 56 57 60 63 65 67 69 70 67 63 61 60 60 60 59
62 60 58 56 54 52 52 52 51 51 52 53 55 57 61 65 68 71 73 76 77 74 69 63 58 55 56 59 58 55 50 44 41 42 44 44 45 46 46 45 43 42 42 39 36 34 33 33 33 33 34 34 32 32 31 31 32 32 31 31 31 30 29 28 29 33 39 45 50 53 55 57 58 60 63 65 67 69 69 67 66 65 64 64 64 63
65 63 61 60 57 54 54 54 53 53 53 54 56 61 65 68 70 72 75 77 77 74 68 63 60 58 58 57 56 54 50 44 42 43 44 45 47 47 46 45 44 42 41 39 36 35 35 34 33 33 34 33 33 32 32 31 31 32 31 31 31 30 29 27 27 29 33 40 46 52 56 58 59 61 64 66 68 70 70 69 69 69 68 68 68 67
67 66 65 63 60 57 56 57 56 55 54 56 60 65 67 69 72 75 77 77 76 72 67 63 60 60 59 58 55 52 48 45 44 43 44 47 48 46 46 47 45 42 42 40 36 35 36 35 34 34 34 33 32 33 33 32 32 31 31 31 30 30 29 28 27 27 28 32 39 47 54 58 61 63 65 67 69 70 71 71 71 70 70 70 69 68
69 69 68 66 64 61 60 60 59 56 57 61 64 66 68 72 76 78 78 77 75 71 66 63 61 60 60 59 56 51 46 45 44 42 44 48 48 46 46 48 47 44 43 42 38 34 35 35 35 36 34 32 32 33 33 33 33 32 31 30 30 30 29 28 28 27 27 28 30 36 44 53 59 63 66 68 70 71 72 73 72 72 71 70 70 71
71 71 70 68 67 65 64 63 61 59 60 64 66 68 72 75 78 80 79 77 74 71 66 62 61 61 61 59 57 52 46 44 43 42 45 47 47 46 47 48 47 45 44 44 40 35 33 34 35 36 35 32 32 32 32 33 33 33 32 31 30 30 30 29 28 27 27 27 27 28 32 39 48 54 59 64 68 70 72 73 73 73 72 72 71 69
72 72 72 70 69 68 67 66 64 63 64 66 69 72 76 77 79 82 81 75 71 69 66 62 61 61 61 60 57 52 46 42 40 42 45 46 46 47 48 48 47 45 44 46 43 37 33 33 35 36 35 33 33 32 31 32 33 33 32 31 30 30 30 29 27 27 27 27 27 26 26 29 33 39 44 49 53 57 61 63 66 67 67 65 62 58
73 73 73 73 71 70 70 68 67 66 67 69 73 76 79 81 82 85 84 75 67 66 64 61 61 62 62 61 57 52 46 40 39 43 45 45 47 49 49 49 48 46 45 47 45 40 36 34 35 36 35 34 33 32 31 33 34 33 31 30 30 30 30 29 27 27 27 27 27 27 27 27 29 31 33 36 39 42 45 49 52 52 51 50 49 48
75 75 75 75 73 72 72 71 69 69 70 73 77 80 82 84 85 87 85 75 65 64 62 59 60 61 62 61 57 52 46 41 40 44 44 44 48 50 49 49 49 48 47 48 46 42 38 37 37 36 36 36 33 31 31 33 34 33 32 30 30 29 28 27 27 27 27 27 27 27 27 28 28 29 30 31 32 34 36 38 40 39 39 40 41 42
78 78 77 76 74 74 74 74 72 72 74 78 81 83 85 87 89 89 83 72 65 64 60 58 59 60 60 60 57 52 45 41 42 44 44 44 48 50 50 49 48 48 49 49 46 42 40 40 39 37 37 37 34 32 31 32 33 33 32 31 30 29 27 26 26 27 27 27 27 28 28 28 28 28 28 28 28 30 32 34 34 34 35 36 37 39
80 80 79 77 76 76 77 77 76 76 79 82 84 86 88 91 91 88 79 70 65 62 59 58 59 60 60 58 55 51 46 42 43 45 45 45 47 49 49 48 48 49 50 49 46 43 42 41 40 39 38 37 35 32 32 32 32 32 31 30 30 29 27 25 26 26 27 28 29 29 29 29 29 29 28 28 29 31 32 33 33 33 35 36 37 39
81 81 80 79 79 80 80 80 80 80 83 86 89 92 94 94 90 83 75 68 63 60 58 58 58 60 60 57 53 50 47 44 44 45 44 45 46 48 50 50 49 50 51 48 45 44 44 43 41 39 38 37 35 33 32 32 32 32 31 30 29 28 27 26 26 26 27 29 29 30 30 30 30 30 30 29 30 32 33 33 34 34 36 37 38 39
81 81 81 81 82 83 83 84 84 85 88 91 93 96 97 94 86 78 71 67 62 59 59 58 57 59 61 58 53 49 47 45 45 45 44 44 46 49 52 51 50 51 51 48 44 44 44 42 39 37 36 37 36 33 32 31 31 32 31 30 29 28 27 26 26 27 28 29 29 29 30 30 30 30 30 30 31 33 33 34 35 36 36 37 38 39
82 83 83 83 84 85 86 87 88 91 93 96 97 98 96 90 82 74 69 66 64 62 60 58 57 58 59 57 52 48 46 46 46 45 44 43 46 50 52 51 51 53 51 46 43 43 41 38 36 36 36 37 36 33 31 31 31 31 31 31 30 29 27 26 26 28 28 29 29 29 30 30 30 30 30 30 31 33 34 35 35 36 37 37 38 39
84 84 85 85 87 88 88 90 93 95 97 99 100 98 92 85 78 73 68 66 64 64 62 59 57 57 57 55 50 46 45 46 46 46 44 45 48 51 52 52 53 53 51 47 43 42 41 38 36 37 38 38 36 33 31 30 30 30 30 31 31 30 27 26 27 28 28 28 29 29 30 30 31 31 31 31 32 33 34 35 35 36 36 37 38 38
86 86 87 88 89 90 92 94 97 99 100 100 98 92 86 81 77 72 68 65 64 64 64 60 57 56 55 52 47 45 45 47 47 46 46 47 49 51 52 54 54 54 51 47 43 42 42 40 39 39 39 38 37 33 30 30 30 30 30 30 31 29 28 27 27 27 27 28 29 29 29 29 30 30 31 32 32 33 34 34 35 35 35 36 37 38
87 88 89 91 92 94 96 98 100 102 101 97 91 85 81 78 75 71 67 64 64 65 65 62 58 55 52 49 46 45 45 47 48 48 48 50 51 51 52 53 54 55 52 46 41 41 41 40 40 40 40 39 37 33 30 30 31 30 30 30 29 28 27 27 27 27 27 28 29 28 28 28 29 30 30 31 32 33 33 34 34 35 35 36 36 37
90 91 93 95 97 98 99 101 103 102 96 89 83 79 77 75 72 70 67 64 63 64 65 62 57 53 50 47 46 45 45 47 49 49 50 51 51 50 51 53 55 55 52 46 41 38 38 39 41 42 41 40 38 34 31 30 31 31 30 29 28 28 28 27 27 27 27 27 28 28 28 28 28 29 30 30 31 31 32 32 33 34 35 35 36 37
94 96 98 100 100 100 100 102 101 95 87 81 78 75 73 71 70 67 66 64 63 62 62 60 56 52 49 47 46 46 46 49 51 51 51 52 51 51 52 54 56 55 52 46 41 37 36 38 41 43 42 41 39 36 32 30 31 31 30 28 28 27 27 27 27 26 26 27 26 26 27 27 27 27 28 28 29 30 30 31 32 33 34 34 35 37
99 100 101 102 100 99 99 98 94 86 79 76 74 73 71 70 68 65 64 64 63 61 60 58 55 51 48 47 47 47 48 50 52 52 53 54 53 53 54 55 56 55 52 47 43 39 38 39 42 44 43 41 40 37 32 30 31 31 30 29 27 27 26 26 26 26 26 26 25 25 25 25 25 26 26 27 27 28 29 30 31 32 33 34 35 36
102 103 103 102 98 94 92 90 85 79 74 72 72 72 71 70 68 66 64 63 63 62 59 56 53 51 49 48 48 49 50 52 54 54 55 56 56 55 55 56 56 55 52 49 46 42 39 37 40 43 43 41 40 38 34 31 31 31 31 29 27 26 26 26 26 26 26 25 24 23 23 23 24 24 25 25 26 27 28 29 30 31 32 33 34 35
Wind_Direction
16 17 19 21 22 22 24 26 29 31 31 29 26 22 16 12 8 5 6 0 333 290 261 249 245 243 242 239 236 235 232 230 230 229 230 229 227 224 221 218 216 216 217 214 218 225 220 214 214 215 216 219 222 224 225 225 224 224 223 222 221 222 221 220 219 218 218 217 217 218 219 220 220 222 223 224 226 227 227 227 230 233 237 239 240 243
14 15 16 18 20 20 21 23 25 27 28 29 27 25 21 15 8 0 356 350 331 299 276 262 255 252 251 249 246 244 242 239 235 233 234 233 231 229 226 223 220 220 221 218 217 225 226 219 216 217 218 220 222 225 226 227 227 226 225 224 224 224 223 222 220 219 219 219 219 220 221 220 221 223 225 226 227 227 228 229 229 231 234 237 240 243
12 12 13 15 17 19 19 19 21 24 25 26 26 26 24 21 14 4 354 344 328 306 287 275 266 260 256 254 253 252 251 248 244 240 238 237 235 234 231 229 225 222 224 224 220 224 229 226 221 219 221 222 223 225 227 228 228 228 227 226 226 226 226 226 225 222 220 220 221 222 222 221 220 222 225 227 228 227 228 229 230 231 232 235 238 241
9 9 10 12 14 16 17 16 17 19 21 23 24 24 24 23 19 12 1 347 333 320 306 294 283 275 266 260 257 255 255 255 253 250 245 241 239 238 235 232 230 227 226 226 223 223 228 230 227 223 223 225 224 225 228 229 229 229 229 228 227 227 228 229 229 228 227 225 224 224 223 223 222 222 223 225 228 229 229 230 231 232 232 234 236 239
5 5 7 9 11 13 14 14 13 14 17 18 20 22 22 22 21 16 9 356 339 324 313 304 296 289 280 272 265 260 257 256 257 256 253 247 243 242 240 237 234 232 230 229 227 225 227 231 233 229 227 228 228 227 228 230 230 230 230 230 229 228 229 229 230 231 232 232 231 229 227 226 224 224 224 225 227 229 230 231 232 234 234 234 235 236
1 2 3 5 7 9 10 12 11 10 12 14 16 18 20 21 21 18 13 4 351 335 318 305 296 289 284 280 277 272 266 261 259 258 258 255 251 247 245 242 239 237 235 233 232 229 228 230 234 235 233 231 231 231 230 231 232 232 232 232 231 230 230 231 231 232 232 233 234 234 233 232 229 228 227 227 228 230 232 233 234 235 236 236 236 235
357 358 360 2 4 5 6 8 8 8 8 9 11 13 16 18 19 19 16 11 2 350 331 313 298 286 281 280 279 277 273 269 265 262 260 259 258 254 250 247 244 241 239 237 236 234 232 231 232 236 238 236 234 234 233 232 233 234 234 234 234 233 232 232 233 233 233 234 234 235 236 236 235 233 230 229 229 229 231 234 236 237 238 239 239 238
353 355 356 357 359 2 3 4 5 5 6 6 7 8 11 13 15 16 16 14 10 2 348 329 312 298 287 281 277 275 273 271 269 267 265 263 261 259 256 253 249 246 243 241 239 238 236 234 234 235 238 240 239 237 236 235 234 235 236 236 236 236 236 235 235 235 235 235 235 236 237 238 238 237 235 234 232 230 230 232 235 237 239 240 241 242
348 351 352 353 355 357 359 0 1 1 2 4 4 5 6 8 10 11 12 12 11 8 3 348 328 311 297 288 280 275 271 270 268 267 267 267 265 262 260 258 255 251 248 246 244 242 240 238 237 237 238 240 242 242 241 239 237 236 237 237 238 238 238 238 238 238 237 237 237 237 238 238 239 239 239 238 236 234 232 232 234 236 239 241 243 244
343 346 348 349 351 353 355 356 357 358 358 359 1 1 2 3 5 6 7 8 8 7 7 3 349 328 309 299 291 283 275 271 269 267 265 264 263 262 261 261 260 257 253 250 248 246 244 242 240 239 240 241 242 244 245 244 241 239 238 238 238 239 239 239 240 240 240 240 239 239 239 239 240 240 241 242 241 239 237 236 236 237 239 241 243 245
338 340 342 344 346 349 350 351 353 354 354 355 357 358 358 359 1 2 2 3 3 2 3 3 359 348 329 313 305 298 291 283 275 270 267 263 261 260 259 258 258 258 257 255 252 250 248 246 243 241 242 243 243 243 244 246 246 244 242 240 240 240 240 240 241 241 241 242 242 242 242 241 241 241 242 243 244 243 241 240 239 239 240 241 243 245
333 335 337 339 342 344 345 346 348 350 351 351 352 353 354 354 355 357 358 358 359 359 358 359 357 354 347 333 319 309 304 299 290 281 275 271 268 265 261 258 257 256 257 257 256 254 252 250 247 244 243 243 245 244 244 245 247 247 246 245 243 242 241 241 242 242 242 243 243 244 244 243 243 243 243 244 244 245 245 244 242 242 242 243 244 245
329 331 332 334 336 338 340 341 343 345 347 348 348 349 349 350 350 351 353 353 354 355 355 355 354 352 350 345 335 323 310 304 299 292 284 279 275 272 268 264 260 257 255 255 255 255 255 254 251 249 246 244 245 246 246 245 246 247 248 248 247 246 244 243 243 243 243 244 244 245 245 245 245 244 244 244 244 245 245 245 245 245 244 244 245 246
326 327 327 329 330 333 335 337 339 341 343 344 345 345 345 345 345 345 347 348 348 350 350 351 351 350 348 346 343 335 322 310 304 300 296 290 284 280 276 273 269 264 259 256 254 254 254 254 254 252 250 248 246 246 246 247 247 246 247 248 249 249 248 247 246 245 244 244 245 245 246 246 247 246 246 245 245 244 244 245 245 246 246 246 246 246
322 323 323 324 326 328 330 332 335 337 339 340 342 341 340 341 341 341 342 343 343 344 345 346 347 347 347 346 344 339 331 320 310 305 303 300 294 287 283 279 276 273 269 264 260 256 254 253 253 253 253 252 250 248 247 247 247 247 247 247 248 249 250 250 249 248 247 247 247 247 247 247 247 248 248 248 247 246 245 245 246 247 247 248 247 247
317 318 318 320 322 324 326 328 331 334 336 337 338 339 338 337 338 338 338 339 340 340 339 340 342 342 344 346 346 341 334 327 319 312 307 301 297 293 288 283 280 278 276 273 269 264 260 256 254 253 253 253 252 252 250 249 247 247 247 247 247 247 248 249 251 251 251 250 249 249 249 248 248 248 248 248 248 248 247 247 247 247 248 249 249 249
313 314 314 316 318 320 322 324 328 330 331 333 336 338 337 336 336 335 336 336 336 337 336 336 336 336 338 343 345 343 336 329 322 318 314 308 303 298 293 288 282 279 277 275 273 270 267 263 260 257 255 254 253 252 252 251 250 249 248 247 246 246 246 247 248 249 250 251 251 251 251 250 250 250 249 249 248 247 247 248 247 247 248 249 249 250
310 311 311 313 315 316 318 321 324 326 327 330 334 336 338 339 338 336 334 333 333 334 334 333 332 330 332 337 341 343 338 330 324 321 319 316 312 309 302 294 285 279 275 273 273 271 269 266 264 262 260 257 255 254 252 252 251 251 250 249 248 246 245 245 245 247 249 250 251 252 252 252 252 251 251 250 249 248 247 247 247 248 248 248 249 249
308 308 308 310 312 313 314 317 321 322 324 326 330 334 337 340 341 339 336 332 330 332 332 332 330 326 326 330 335 339 337 331 327 324 321 318 315 313 311 303 292 284 278 275 273 273 271 269 267 265 262 260 259 257 255 254 252 252 251 251 251 249 248 246 246 246 247 248 249 250 251 252 252 252 252 252 252 251 250 249 248 248 248 248 249 249
305 306 306 308 309 310 311 314 317 318 320 323 327 330 334 338 341 341 338 333 329 329 330 330 328 324 322 324 329 334 335 330 327 324 321 319 316 314 313 310 302 291 284 280 278 275 274 273 271 269 266 263 261 260 259 258 256 254 253 253 253 252 251 250 249 247 247 247 248 249 250 252 252 253 253 253 253 253 253 252 251 250 249 249 250 251
302 302 303 305 307 307 308 311 313 314 316 319 323 327 330 335 338 340 339 334 330 328 327 327 327 323 319 320 325 330 331 328 326 324 321 319 317 314 312 311 307 298 289 284 281 279 277 275 274 272 270 267 265 263 262 261 260 258 257 256 255 254 254 253 252 251 250 249 249 249 250 250 251 252 253 253 253 253 253 253 253 252 251 251 252 253
298 298 299 301 302 304 306 308 310 311 313 316 320 324 327 331 334 335 337 335 331 328 324 323 326 322 316 317 323 326 326 326 324 323 322 319 315 313 310 309 307 302 294 287 283 281 279 277 277 276 274 272 270 268 267 266 265 263 261 259 257 256 255 255 254 253 253 252 251 250 250 250 251 251 252 251 251 251 252 252 253 253 253 253 253 253
296 297 297 297 298 300 303 306 308 310 312 315 319 322 325 328 330 331 333 333 331 328 322 320 324 321 313 315 321 322 322 323 322 322 321 318 314 310 308 307 306 304 300 292 285 282 280 277 276 275 273 271 269 267 266 266 266 266 265 264 262 261 258 256 253 252 251 251 251 250 250 249 249 250 251 250 250 250 250 251 252 252 253 253 253 253
298 297 296 295 294 296 301 305 308 309 312 314 317 320 322 324 326 328 329 330 330 326 320 318 321 316 311 315 319 318 318 320 320 320 320 316 311 306 305 306 306 306 304 297 289 285 282 280 278 278 275 272 269 267 265 265 264 265 266 267 266 264 262 260 257 255 253 252 252 251 250 248 246 247 250 251 250 250 250 250 251 251 251 251 251 252
299 298 295 291 290 293 299 302 305 307 309 311 313 317 319 320 323 325 325 327 327 323 320 319 317 312 311 315 316 313 314 316 317 318 318 314 308 303 303 305 306 306 304 299 290 285 283 282 281 281 280 277 275 274 272 270 268 268 269 270 269 267 265 263 261 259 257 254 251 250 251 251 247 243 245 248 248 250 250 250 251 251 251 251 251 251
300 299 295 290 289 291 295 297 300 303 306 308 311 314 315 317 321 322 321 322 322 321 321 319 314 311 312 314 312 310 312 313 313 315 315 309 304 302 302 303 304 304 302 296 288 281 280 280 279 278 277 277 276 276 274 273 271 271 270 270 270 270 268 264 260 258 258 257 254 250 247 250 247 241 240 243 244 247 249 249 250 250 250 251 252 252
300 298 295 292 291 292 294 296 298 301 303 306 309 311 313 315 318 319 317 317 318 322 322 317 311 311 313 312 310 308 309 309 310 313 311 304 301 302 303 303 303 303 300 294 286 279 277 277 277 276 276 276 276 276 275 274 274 273 271 270 271 271 268 263 256 248 246 252 255 251 245 243 241 239 240 242 243 245 247 248 248 250 251 252 252 253
300 298 296 294 294 294 295 296 297 300 302 305 307 309 310 313 315 314 313 314 318 321 320 315 311 311 312 312 308 305 305 308 310 309 304 299 300 301 301 302 302 302 300 295 286 280 278 277 277 277 277 277 277 277 277 277 277 278 276 275 276 274 270 264 252 234 227 238 246 248 244 239 235 235 239 242 243 245 248 249 249 249 250 251 252 253
298 299 297 295 294 294 294 295 296 298 301 305 306 306 308 311 311 310 311 314 317 319 317 313 311 311 312 310 304 301 305 307 305 301 298 296 297 298 299 300 301 302 302 296 288 283 279 277 277 277 277 277 278 278 279 279 281 281 280 279 279 277 274 268 257 240 229 232 240 243 243 239 235 234 238 241 242 243 246 249 251 251 251 252 253 254
296 297 297 295 294 293 293 293 295 298 302 304 305 305 307 307 306 308 311 313 315 317 315 311 310 311 311 305 299 301 305 302 297 295 294 294 294 295 295 297 299 303 303 298 290 285 281 278 277 276 276 276 278 279 279 281 283 283 282 281 279 278 276 269 260 249 238 234 237 240 241 240 237 235 237 241 243 243 245 249 252 254 255 256 258 258
294 295 296 294 293 293 292 292 295 298 301 304 304 304 302 301 304 308 311 312 314 315 313 310 309 309 305 300 300 303 301 295 292 292 290 290 291 291 292 293 297 301 302 299 293 288 283 278 276 276 276 276 277 279 280 282 283 283 283 282 278 278 277 272 263 256 248 243 241 239 238 240 240 237 237 241 244 246 248 251 252 255 257 260 262 263
291 293 294 292 292 292 291 292 296 298 302 304 303 299 298 300 305 308 309 311 312 313 311 308 307 304 300 298 300 300 296 291 288 286 285 287 287 288 289 291 295 299 301 299 293 287 283 278 275 275 276 277 277 278 280 281 283 284 285 283 281 279 279 277 271 263 255 249 244 239 236 237 240 238 238 240 243 245 248 251 253 255 257 260 262 264
289 291 292 291 291 290 290 292 294 297 303 303 298 295 298 302 304 306 308 310 311 310 308 306 303 302 299 298 299 298 293 286 281 280 283 284 284 285 287 290 294 298 300 298 290 284 281 277 275 274 275 276 278 278 279 280 281 285 286 284 284 282 280 280 277 269 261 254 248 243 238 236 237 237 238 240 242 244 246 250 253 256 258 260 262 265
288 289 290 289 289 289 289 290 293 299 302 298 295 296 299 300 303 306 309 310 309 307 305 302 301 299 298 297 298 296 289 282 278 278 279 279 280 283 286 289 292 296 299 297 289 282 280 278 275 274 274 275 278 279 280 280 281 283 285 285 285 284 282 281 280 275 268 259 251 247 243 239 238 238 240 241 243 245 248 251 254 256 259 261 263 266
286 287 288 288 288 289 289 290 294 299 298 295 296 297 297 298 303 306 308 308 307 304 302 300 298 297 296 297 297 293 285 278 276 275 274 275 278 281 283 286 290 294 298 296 290 283 280 279 275 273 273 274 275 278 280 282 283 284 286 287 287 286 284 282 281 280 276 268 258 250 246 244 242 242 243 245 246 248 250 253 255 257 259 262 264 266
285 286 288 288 288 289 290 292 295 297 296 295 296 295 295 299 303 305 307 308 305 301 299 297 296 295 295 296 296 292 284 277 275 273 271 273 276 279 281 283 286 291 295 296 291 284 280 278 275 273 274 273 272 273 277 280 282 284 287 289 289 287 285 282 281 281 280 276 269 259 250 246 245 245 246 248 248 250 252 254 256 258 260 263 264 265
284 286 287 288 288 289 290 292 294 295 295 294 294 294 297 300 301 303 306 306 302 297 296 296 295 294 294 294 295 292 284 278 275 270 269 272 275 277 278 280 284 288 293 294 291 284 279 277 275 275 275 273 272 272 274 277 278 279 283 288 290 288 286 283 281 280 278 276 273 268 261 254 250 248 248 249 250 252 253 255 256 258 259 261 261 261
284 285 286 287 288 289 290 291 293 294 294 293 293 295 298 300 301 303 305 305 299 293 293 293 293 292 292 293 294 290 284 277 271 267 268 270 272 274 276 278 282 286 290 292 290 285 279 276 275 276 276 274 273 272 273 275 276 278 281 285 288 287 285 284 282 279 276 273 270 268 265 262 259 256 254 254 254 254 254 254 255 256 257 257 257 257
283 284 285 287 289 289 289 290 292 292 292 293 294 296 298 299 300 302 304 303 296 290 290 290 290 290 291 292 292 289 283 276 268 265 265 266 268 272 274 276 280 284 288 290 288 283 279 276 275 276 277 275 273 271 271 274 276 278 281 285 287 286 285 284 282 279 276 274 272 269 266 263 262 260 259 258 258 257 256 256 256 257 257 257 257 258
282 284 285 288 289 289 289 289 290 291 292 293 295 296 296 298 300 302 303 299 292 289 290 288 287 288 289 291 292 288 282 274 266 262 261 262 265 269 272 275 279 282 286 289 287 282 278 276 275 276 277 275 273 271 270 272 274 277 280 285 287 287 285 282 280 279 278 277 275 273 271 269 268 266 264 262 262 260 260 260 260 260 261 261 261 261
283 285 287 288 289 289 288 289 290 291 292 294 294 295 296 298 300 301 299 294 291 289 288 287 287 287 288 291 291 287 280 273 265 260 257 258 262 267 271 274 278 281 284 287 286 281 278 277 275 276 276 274 272 271 270 271 274 276 279 284 288 289 285 280 278 278 278 278 277 276 276 275 275 274 273 271 269 267 266 267 267 266 266 266 265 265
283 285 286 288 288 287 287 288 290 291 292 293 294 295 297 298 299 298 296 293 290 288 286 286 287 287 289 291 290 284 278 272 266 260 256 258 262 267 270 273 276 279 282 285 285 281 279 278 276 275 273 270 268 268 269 271 274 276 279 284 288 288 285 281 280 280 278 278 278 278 279 278 277 278 278 277 275 274 273 274 273 272 271 270 270 270
281 283 284 285 286 286 287 288 289 291 292 293 294 295 297 298 297 296 294 292 290 287 286 286 287 288 290 291 289 283 275 269 265 260 256 257 261 264 267 271 275 277 280 283 284 281 279 279 276 272 269 267 266 267 269 271 274 277 281 285 288 288 284 282 282 282 282 282 282 282 282 281 280 280 280 280 279 279 279 278 277 276 275 274 273 273
280 281 282 283 285 285 286 288 289 290 291 292 294 295 296 296 295 294 292 291 289 288 286 285 287 289 290 289 286 280 273 267 263 258 255 254 258 261 265 269 272 275 278 281 281 279 279 278 273 268 266 265 265 266 269 271 273 276 281 286 289 288 284 282 282 283 284 285 284 284 284 284 283 284 284 283 282 281 280 279 278 277 276 275 274 273
279 280 282 283 284 285 286 287 288 289 291 293 294 295 295 294 293 292 291 290 288 287 286 285 286 287 287 285 281 276 271 265 259 256 253 252 255 260 264 267 270 273 276 280 279 277 277 276 270 265 265 265 265 266 267 268 271 275 279 284 288 288 285 282 282 283 284 284 283 283 284 285 286 286 286 285 284 282 281 281 280 279 278 277 276 275
279 280 281 282 283 284 285 286 287 289 291 292 293 293 292 292 291 291 290 288 287 286 285 284 284 285 284 281 276 271 267 261 256 253 251 250 253 257 261 265 269 271 274 277 279 276 273 271 267 264 264 265 266 267 268 268 270 273 276 282 286 286 282 280 280 282 282 282 281 282 282 283 285 286 287 287 287 285 284 283 282 281 280 278 277 276
278 279 280 281 282 283 284 286 287 289 290 291 291 290 290 290 290 290 289 287 286 285 283 283 283 282 281 276 271 267 263 258 253 249 247 249 251 254 258 262 266 269 271 275 277 274 269 265 262 261 263 264 265 266 268 268 269 271 273 279 284 283 278 276 278 279 279 280 280 282 284 285 287 289 289 289 289 288 286 285 284 283 281 280 279 278
278 279 280 280 281 283 285 286 287 288 289 289 289 289 289 289 289 288 287 284 282 281 281 281 281 280 277 273 268 264 259 255 251 246 245 248 250 252 256 259 262 265 269 272 273 270 265 262 259 258 260 262 264 264 265 264 266 268 271 277 281 280 275 274 277 278 279 280 281 284 286 288 290 291 292 291 290 289 288 287 285 284 283 283 282 281
278 278 279 280 282 284 286 286 286 286 288 289 289 288 287 286 285 284 282 280 278 276 277 277 277 276 273 269 265 260 256 253 249 245 243 246 248 250 252 255 259 263 266 270 270 264 259 260 260 259 259 260 262 263 263 262 264 266 269 274 278 277 275 276 279 281 281 282 284 286 288 290 292 292 293 292 292 291 290 289 288 287 287 286 285 284
277 278 279 281 283 284 285 285 285 287 288 288 287 286 284 282 280 279 277 276 274 273 272 273 273 271 268 265 262 257 253 250 248 244 242 243 246 248 249 252 257 261 265 268 267 261 256 257 259 259 259 259 261 262 263 262 264 266 268 273 277 277 275 276 279 280 281 282 285 288 291 293 295 295 295 295 294 294 294 294 293 292 291 290 288 287
278 279 280 281 282 283 284 285 286 287 287 285 284 282 280 278 276 274 272 272 272 272 271 270 269 267 265 262 258 255 250 247 245 243 242 243 245 246 248 251 255 259 262 265 264 260 258 257 256 256 257 257 259 262 262 262 263 265 267 271 274 275 274 275 277 277 277 280 284 289 293 296 298 298 298 298 298 298 298 298 297 296 295 293 290 288
Height
10681 10678 10676 10673 10670 10667 10665 10663 10661 10659 10658 10657 10656 10655 10654 10653 10653 10653 10653 10653 10653 10654 10654 10654 10655 10655 10656 10657 10657 10658 10660 10661 10663 10665 10666 10667 10668 10670 10672 10674 10676 10677 10679 10681 10683 10684 10687 10689 10692 10694 10696 10698 10700 10702 10705 10707 10709 10711 10713 10715 10717 10719 10721 10722 10723 10725 10727 10729 10731 10734 10736 10738 10741 10743 10744 10746 10748 10750 10752 10754 10755 10757 10759 10760 10761 10763
10682 10680 10677 10675 10672 10669 10667 10664 10663 10661 10660 10659 10658 10657 10656 10655 10654 10653 10653 10654 10654 10654 10654 10654 10655 10655 10655 10656 10657 10658 10659 10660 10662 10663 10664 10665 10667 10669 10671 10672 10674 10676 10677 10679 10681 10682 10684 10686 10688 10690 10692 10695 10697 10699 10702 10704 10706 10709 10711 10713 10715 10717 10718 10719 10721 10722 10724 10726 10728 10730 10733 10735 10737 10739 10741 10743 10745 10747 10749 10750 10752 10753 10755 10757 10758 10759
10683 10681 10679 10676 10674 10672 10669 10666 10665 10663 10662 10661 10660 10659 10657 10656 10655 10654 10653 10653 10653 10654 10654 10654 10654 10654 10654 10655 10656 10657 10658 10659 10660 10661 10663 10664 10666 10668 10669 10670 10671 10674 10675 10677 10679 10680 10680 10681 10684 10686 10689 10691 10693 10696 10698 10701 10703 10706 10707 10709 10711 10713 10715 10716 10718 10719 10720 10722 10724 10726 10729 10731 10733 10735 10738 10740 10742 10743 10745 10746 10748 10750 10751 10753 10755 10756
10684 10682 10680 10678 10675 10673 10671 10668 10666 10665 10664 10663 10662 10660 10658 10657 10656 10654 10653 10653 10652 10652 10653 10653 10653 10653 10653 10653 10655 10656 10657 10658 10658 10659 10661 10663 10664 10665 10666 10667 10668 10671 10672 10674 10675 10676 10677 10679 10681 10683 10686 10688 10690 10692 10694 10697 10700 10702 10704 10705 10707 10709 10711 10713 10715 10716 10717 10719 10720 10723 10725 10727 10729 10731 10733 10736 10738 10739 10740 10742 10744 10745 10747 10749 10751 10753
10685 10683 10681 10678 10676 10674 10672 10670 10668 10666 10665 10664 10663 10661 10659 10658 10656 10655 10654 10653 10653 10652 10652 10653 10652 10651 10650 10651 10653 10654 10655 10656 10657 10657 10658 10660 10661 10662 10664 10665 10666 10668 10669 10670 10671 10673 10675 10676 10678 10680 10683 10685 10687 10689 10691 10694 10696 10698 10700 10701 10703 10705 10707 10709 10711 10713 10714 10716 10717 10719 10721 10723 10725 10727 10729 10731 10733 10735 10736 10738 10739 10741 10743 10745 10747 10749
10685 10683 10681 10679 10676 10674 10673 10671 10668 10666 10665 10664 10663 10662 10660 10659 10658 10656 10655 10654 10653 10653 10652 10652 10652 10650 10649 10649 10650 10651 10652 10653 10654 10654 10655 10657 10659 10660 10662 10663 10664 10665 10666 10667 10669 10670 10672 10674 10676 10677 10679 10681 10684 10686 10688 10690 10692 10694 10696 10698 10699 10701 10703 10705 10707 10709 10710 10712 10714 10715 10717 10719 10721 10723 10725 10727 10729 10731 10732 10734 10735 10736 10739 10741 10743 10745
10685 10683 10681 10679 10677 10675 10673 10671 10670 10667 10665 10663 10662 10661 10661 10660 10659 10658 10656 10655 10654 10653 10652 10651 10651 10650 10648 10648 10649 10649 10649 10650 10651 10651 10652 10654 10655 10657 10658 10659 10660 10661 10662 10664 10665 10667 10669 10671 10673 10674 10675 10677 10679 10682 10684 10686 10688 10690 10692 10694 10696 10698 10700 10701 10703 10705 10707 10708 10710 10711 10713 10715 10717 10719 10721 10722 10724 10726 10728 10730 10731 10733 10734 10736 10738 10740
10684 10682 10680 10678 10677 10675 10673 10671 10670 10668 10666 10664 10662 10661 10660 10659 10659 10658 10657 10656 10655 10653 10652 10651 10650 10649 10647 10647 10647 10646 10646 10646 10647 10647 10648 10650 10651 10652 10653 10654 10656 10657 10658 10660 10662 10664 10665 10667 10669 10671 10672 10673 10675 10677 10680 10682 10684 10686 10688 10691 10692 10694 10696 10697 10699 10701 10703 10704 10706 10707 10709 10711 10713 10715 10716 10718 10720 10722 10724 10725 10727 10729 10730 10732 10733 10735
10681 10680 10679 10677 10675 10674 10672 10671 10669 10667 10666 10664 10662 10660 10659 10658 10657 10656 10656 10655 10654 10653 10653 10651 10650 10649 10647 10645 10645 10645 10644 10644 10644 10644 10645 10646 10646 10647 10648 10649 10651 10652 10654 10655 10657 10659 10661 10663 10665 10666 10668 10669 10671 10673 10675 10677 10680 10682 10684 10686 10687 10689 10691 10693 10695 10697 10699 10700 10701 10703 10704 10706 10708 10710 10711 10713 10715 10717 10719 10721 10723 10724 10726 10727 10729 10730
10680 10679 10678 10676 10674 10672 10671 10670 10669 10667 10665 10664 10662 10661 10659 10657 10655 10654 10653 10652 10652 10651 10651 10650 10649 10647 10645 10644 10644 10643 10642 10642 10642 10642 10642 10642 10642 10642 10644 10645 10645 10647 10648 10650 10651 10653 10655 10658 10660 10662 10663 10664 10666 10668 10669 10671 10673 10676 10678 10680 10682 10684 10686 10688 10690 10692 10693 10695 10696 10698 10699 10701 10702 10704 10706 10708 10710 10712 10714 10716 10718 10719 10721 10722 10724 10725
10678 10677 10677 10675 10674 10672 10670 10669 10668 10666 10664 10663 10662 10660 10658 10656 10655 10653 10652 10650 10649 10648 10648 10648 10647 10646 10644 10641 10641 10640 10640 10639 10639 10639 10639 10638 10637 10638 10639 10640 10641 10641 10642 10644 10645 10647 10649 10651 10654 10657 10658 10659 10660 10663 10664 10665 10667 10669 10671 10674 10676 10679 10681 10683 10684 10686 10687 10689 10690 10692 10694 10696 10697 10699 10701 10703 10705 10707 10709 10711 10713 10714 10716 10717 10719 10720
10678 10676 10675 10674 10672 10671 10669 10667 10666 10665 10664 10662 10660 10659 10657 10656 10654 10653 10651 10649 10648 10647 10645 10644 10644 10643 10642 10640 10639 10638 10637 10636 10636 10635 10635 10634 10633 10634 10635 10635 10636 10636 10637 10638 10639 10640 10641 10643 10646 10650 10652 10654 10655 10656 10658 10660 10661 10663 10665 10667 10669 10672 10675 10677 10678 10680 10681 10683 10684 10686 10688 10690 10692 10693 10695 10697 10699 10701 10703 10706 10707 10709 10710 10712 10714 10715
10677 10675 10673 10671 10670 10669 10667 10666 10665 10663 10662 10661 10659 10657 10656 10654 10653 10651 10650 10648 10647 10645 10644 10642 10641 10640 10639 10638 10637 10636 10635 10634 10633 10632 10631 10630 10630 10629 10630 10630 10631 10631 10632 10633 10633 10634 10635 10636 10639 10641 10645 10647 10648 10650 10652 10654 10655 10657 10659 10660 10663 10665 10668 10670 10672 10673 10675 10676 10678 10679 10681 10683 10685 10687 10689 10691 10693 10695 10697 10699 10701 10703 10704 10706 10708 10709
10675 10673 10671 10669 10667 10666 10665 10664 10663 10662 10660 10659 10657 10655 10653 10652 10651 10649 10648 10647 10645 10644 10643 10641 10640 10638 10637 10636 10635 10634 10633 10631 10630 10629 10628 10627 10626 10625 10625 10625 10625 10625 10626 10627 10628 10629 10629 10630 10632 10634 10636 10639 10641 10643 10645 10647 10649 10651 10653 10654 10656 10658 10661 10663 10665 10666 10668 10669 10671 10672 10674 10676 10678 10680 10682 10685 10687 10689 10691 10693 10695 10697 10698 10700 10702 10703
10672 10670 10668 10666 10665 10663 10663 10662 10661 10660 10658 10656 10654 10652 10651 10650 10648 10647 10645 10644 10643 10641 10640 10639 10638 10637 10635 10634 10633 10632 10631 10629 10628 10627 10626 10624 10622 10621 10621 10620 10619 10619 10620 10620 10621 10622 10623 10624 10625 10626 10628 10630 10632 10635 10638 10640 10641 10643 10646 10648 10650 10652 10654 10655 10657 10659 10660 10661 10663 10665 10667 10669 10670 10672 10675 10677 10680 10682 10684 10686 10688 10690 10691 10693 10695 10697
10668 10667 10665 10664 10662 10661 10659 10659 10658 10657 10656 10655 10653 10651 10649 10647 10646 10644 10643 10641 10640 10638 10636 10635 10634 10633 10633 10632 10631 10629 10628 10626 10625 10624 10623 10622 10620 10618 10617 10616 10615 10615 10615 10614 10615 10615 10616 10617 10618 10620 10621 10623 10624 10627 10629 10631 10633 10635 10637 10640 10642 10644 10646 10648 10649 10650 10651 10653 10655 10657 10659 10661 10663 10665 10668 10670 10673 10675 10676 10678 10680 10682 10684 10685 10688 10690
10666 10664 10663 10661 10660 10659 10657 10655 10654 10654 10653 10652 10651 10649 10647 10645 10643 10642 10641 10639 10637 10635 10633 10630 10629 10628 10629 10629 10628 10627 10625 10623 10622 10621 10620 10619 10617 10616 10614 10613 10612 10611 10611 10610 10609 10609 10609 10610 10612 10613 10614 10615 10616 10618 10621 10623 10624 10626 10628 10631 10633 10636 10638 10639 10640 10640 10642 10644 10646 10648 10650 10653 10655 10658 10661 10663 10665 10667 10668 10669 10671 10673 10675 10677 10679 10682
10662 10661 10659 10658 10657 10656 10654 10652 10651 10649 10649 10648 10647 10646 10644 10642 10640 10639 10638 10637 10635 10634 10631 10627 10624 10623 10623 10624 10624 10624 10622 10620 10618 10617 10616 10615 10614 10613 10611 10610 10608 10607 10606 10606 10605 10604 10604 10604 10606 10606 10607 10608 10609 10610 10612 10613 10615 10617 10619 10621 10623 10625 10628 10629 10630 10632 10634 10636 10637 10639 10641 10644 10647 10650 10652 10654 10656 10658 10659 10661 10663 10665 10667 10669 10671 10674
10659 10657 10655 10654 10654 10652 10651 10649 10648 10646 10644 10643 10643 10642 10640 10639 10637 10635 10633 10632 10631 10631 10630 10626 10622 10617 10617 10619 10620 10620 10618 10616 10614 10612 10611 10611 10610 10609 10607 10606 10604 10603 10601 10601 10600 10599 10598 10599 10599 10600 10600 10601 10601 10602 10603 10605 10607 10608 10609 10611 10613 10615 10617 10620 10622 10624 10626 10627 10629 10630 10633 10635 10638 10641 10643 10645 10647 10649 10651 10653 10655 10656 10658 10661 10663 10666
10656 10654 10651 10649 10648 10647 10646 10645 10644 10643 10641 10639 10638 10637 10636 10635 10633 10632 10630 10628 10627 10627 10626 10625 10621 10614 10611 10613 10615 10616 10615 10612 10610 10608 10607 10606 10604 10603 10603 10601 10600 10598 10597 10596 10595 10594 10593 10593 10594 10594 10594 10594 10594 10595 10595 10596 10598 10600 10601 10603 10604 10605 10607 10610 10613 10615 10617 10619 10621 10623 10626 10628 10630 10632 10633 10636 10637 10639 10640 10642 10645 10647 10649 10652 10655 10657
10653 10652 10649 10646 10644 10642 10641 10640 10640 10639 10638 10637 10635 10633 10632 10631 10629 10628 10626 10624 10623 10622 10622 10622 10620 10613 10607 10607 10609 10610 10610 10609 10607 10605 10603 10601 10599 10598 10597 10596 10595 10594 10593 10592 10590 10589 10588 10588 10588 10588 10587 10588 10588 10588 10589 10589 10590 10591 10593 10594 10595 10596 10598 10601 10603 10605 10608 10610 10613 10616 10618 10620 10622 10623 10624 10626 10627 10628 10629 10631 10633 10636 10639 10642 10645 10648
10649 10648 10647 10645 10642 10639 10637 10636 10635 10635 10634 10633 10632 10630 10628 10627 10625 10624 10622 10620 10618 10618 10617 10617 10618 10612 10604 10603 10603 10603 10604 10604 10603 10601 10599 10597 10596 10594 10592 10591 10591 10590 10589 10588 10587 10585 10583 10583 10583 10583 10582 10582 10582 10582 10583 10583 10583 10584 10585 10585 10586 10588 10590 10592 10594 10595 10597 10599 10602 10606 10608 10611 10613 10614 10614 10615 10615 10615 10617 10618 10621 10625 10628 10631 10634 10636
10644 10644 10643 10642 10640 10637 10634 10632 10630 10630 10630 10629 10628 10626 10624 10623 10621 10620 10619 10617 10614 10614 10612 10611 10614 10609 10600 10599 10599 10597 10597 10598 10598 10597 10595 10593 10592 10589 10588 10586 10585 10585 10584 10583 10582 10580 10579 10578 10578 10578 10577 10577 10577 10578 10578 10578 10578 10577 10577 10577 10578 10580 10581 10582 10583 10584 10585 10587 10590 10593 10596 10598 10599 10600 10600 10601 10602 10603 10604 10606 10609 10612 10615 10617 10620 10623
10639 10639 10639 10638 10636 10634 10631 10629 10626 10624 10624 10624 10623 10621 10619 10618 10616 10615 10613 10611 10610 10609 10607 10606 10608 10604 10596 10595 10594 10591 10591 10592 10592 10592 10591 10589 10587 10585 10583 10581 10580 10579 10579 10578 10577 10575 10573 10573 10573 10572 10571 10571 10572 10572 10573 10573 10572 10571 10571 10571 10571 10571 10571 10571 10571 10573 10575 10578 10580 10582 10582 10582 10584 10586 10586 10586 10588 10590 10592 10594 10597 10598 10600 10602 10605 10609
10633 10633 10634 10633 10631 10630 10628 10625 10623 10620 10619 10618 10617 10616 10614 10612 10611 10609 10607 10606 10604 10603 10601 10601 10602 10598 10593 10592 10588 10585 10585 10586 10585 10586 10585 10584 10582 10580 10579 10577 10576 10575 10574 10573 10572 10570 10568 10567 10567 10566 10565 10565 10565 10566 10567 10566 10566 10566 10567 10565 10564 10563 10562 10562 10562 10563 10566 10568 10569 10570 10571 10572 10575 10575 10572 10571 10573 10575 10578 10582 10583 10584 10586 10589 10591 10595
10627 10627 10627 10627 10626 10625 10623 10621 10620 10618 10615 10612 10610 10609 10609 10607 10606 10604 10602 10601 10599 10598 10596 10595 10594 10591 10589 10587 10583 10578 10579 10581 10580 10580 10580 10578 10576 10574 10573 10573 10572 10571 10570 10569 10567 10566 10564 10563 10562 10562 10560 10559 10560 10560 10560 10560 10560 10561 10561 10559 10558 10557 10556 10554 10554 10556 10559 10559 10559 10560 10562 10563 10565 10563 10558 10558 10562 10565 10568 10569 10570 10571 10575 10578 10580 10583
10622 10621 10620 10620 10620 10619 10618 10616 10615 10614 10613 10610 10605 10603 10602 10601 10600 10598 10596 10595 10594 10594 10593 10589 10587 10586 10584 10581 10576 10572 10573 10575 10575 10575 10575 10573 10570 10568 10567 10566 10566 10565 10564 10564 10562 10561 10560 10558 10557 10557 10555 10554 10554 10554 10554 10553 10554 10555 10554 10552 10552 10551 10548 10547 10548 10551 10553 10553 10553 10553 10553 10555 10555 10554 10552 10553 10557 10558 10558 10558 10559 10562 10566 10568 10571 10573
10616 10616 10615 10614 10613 10613 10612 10611 10609 10608 10608 10606 10602 10598 10595 10594 10594 10592 10590 10588 10587 10589 10589 10584 10581 10581 10579 10574 10568 10565 10567 10570 10570 10569 10569 10568 10565 10563 10561 10559 10558 10558 10558 10558 10557 10556 10555 10553 10552 10551 10550 10548 10548 10548 10547 10547 10548 10547 10546 10546 10545 10543 10542 10542 10542 10543 10544 10544 10545 10545 10545 10547 10549 10549 10549 10549 10550 10550 10549 10549 10552 10555 10557 10560 10562 10564
10608 10609 10609 10608 10607 10606 10605 10605 10604 10603 10602 10600 10598 10594 10590 10588 10587 10585 10583 10581 10580 10582 10583 10579 10576 10576 10574 10569 10561 10557 10561 10565 10564 10563 10563 10562 10561 10559 10556 10553 10551 10551 10552 10552 10551 10551 10550 10548 10547 10546 10545 10543 10543 10543 10542 10541 10542 10541 10541 10541 10538 10536 10536 10537 10536 10536 10536 10537 10537 10537 10538 10540 10542 10543 10543 10542 10543 10543 10542 10542 10545 10547 10550 10552 10555 10557
10601 10601 10602 10602 10601 10600 10599 10598 10597 10596 10596 10594 10593 10590 10586 10582 10579 10577 10576 10573 10571 10574 10575 10573 10572 10572 10568 10561 10556 10554 10556 10558 10558 10557 10557 10556 10556 10554 10552 10549 10546 10545 10545 10545 10546 10545 10544 10544 10543 10541 10540 10539 10538 10538 10537 10536 10537 10536 10536 10536 10533 10530 10531 10533 10531 10531 10530 10530 10530 10531 10532 10534 10535 10536 10537 10536 10537 10537 10535 10536 10539 10540 10542 10545 10547 10549
10593 10593 10594 10594 10594 10595 10593 10591 10591 10590 10590 10589 10587 10585 10581 10577 10572 10570 10569 10566 10563 10564 10565 10565 10567 10568 10561 10553 10551 10551 10550 10551 10551 10551 10550 10550 10550 10549 10547 10545 10543 10541 10540 10539 10540 10540 10539 10538 10538 10536 10535 10534 10534 10533 10532 10531 10531 10531 10531 10530 10528 10525 10525 10526 10526 10525 10525 10524 10524 10525 10526 10527 10528 10530 10531 10532 10531 10531 10530 10532 10533 10534 10536 10537 10538 10540
10584 10585 10586 10586 10588 10589 10586 10584 10584 10583 10584 10584 10581 10578 10574 10570 10568 10566 10563 10560 10556 10555 10556 10556 10558 10560 10554 10547 10546 10545 10544 10544 10545 10544 10544 10544 10543 10542 10541 10540 10540 10538 10536 10535 10534 10534 10534 10533 10533 10532 10530 10529 10529 10528 10528 10527 10526 10526 10526 10524 10522 10520 10519 10520 10520 10520 10519 10519 10519 10519 10520 10520 10521 10523 10525 10526 10525 10525 10525 10526 10527 10527 10529 10530 10531 10533
10575 10576 10576 10577 10580 10581 10579 10577 10577 10577 10578 10579 10574 10569 10565 10563 10562 10560 10558 10555 10550 10547 10547 10548 10548 10548 10545 10542 10541 10539 10537 10538 10538 10537 10538 10538 10536 10535 10535 10535 10535 10534 10532 10531 10530 10529 10528 10528 10528 10528 10526 10524 10524 10523 10523 10522 10521 10520 10520 10519 10517 10516 10514 10514 10514 10514 10513 10513 10513 10513 10513 10514 10515 10516 10517 10518 10518 10518 10519 10519 10519 10520 10521 10523 10524 10525
10566 10566 10567 10568 10571 10572 10571 10569 10569 10571 10573 10571 10566 10561 10559 10556 10553 10552 10552 10549 10544 10541 10539 10540 10540 10538 10536 10535 10534 10533 10531 10530 10531 10531 10531 10530 10529 10529 10530 10529 10529 10529 10527 10526 10525 10524 10523 10523 10523 10523 10522 10520 10519 10518 10517 10517 10516 10515 10515 10514 10512 10511 10509 10508 10508 10507 10507 10507 10507 10507 10508 10509 10509 10509 10510 10510 10511 10512 10512 10512 10512 10513 10514 10516 10517 10518
10558 10557 10557 10558 10560 10562 10562 10560 10561 10565 10565 10560 10557 10555 10551 10548 10545 10544 10545 10542 10536 10533 10533 10532 10531 10529 10528 10527 10527 10526 10525 10523 10524 10525 10524 10522 10522 10524 10525 10524 10523 10523 10522 10520 10520 10520 10519 10518 10518 10517 10517 10517 10516 10514 10512 10511 10510 10510 10509 10508 10507 10506 10504 10504 10503 10502 10502 10501 10501 10501 10502 10503 10503 10503 10503 10504 10505 10505 10505 10505 10505 10506 10508 10509 10510 10511
10549 10547 10547 10548 10550 10551 10551 10550 10553 10557 10556 10551 10549 10547 10543 10542 10539 10536 10539 10538 10528 10523 10525 10525 10523 10521 10520 10520 10520 10519 10519 10517 10518 10518 10516 10515 10517 10518 10519 10518 10517 10517 10516 10515 10514 10515 10514 10513 10513 10512 10513 10513 10512 10510 10509 10507 10506 10505 10504 10503 10502 10501 10500 10499 10498 10498 10497 10496 10496 10496 10496 10496 10496 10496 10497 10497 10498 10498 10498 10498 10499 10500 10501 10502 10503 10502
10540 10539 10538 10539 10540 10541 10540 10541 10543 10546 10546 10543 10540 10537 10534 10534 10532 10528 10532 10534 10524 10515 10516 10517 10516 10514 10513 10512 10512 10512 10512 10512 10512 10510 10508 10510 10512 10511 10511 10511 10511 10511 10511 10509 10508 10509 10508 10508 10508 10507 10508 10508 10507 10506 10505 10503 10502 10501 10500 10499 10498 10496 10495 10494 10493 10493 10492 10491 10490 10490 10490 10490 10490 10490 10490 10490 10490 10491 10492 10492 10492 10493 10494 10495 10494 10494
10530 10529 10528 10529 10532 10532 10530 10532 10534 10536 10537 10534 10530 10528 10525 10524 10523 10519 10523 10528 10520 10509 10510 10511 10508 10506 10505 10504 10505 10504 10504 10506 10506 10503 10502 10505 10505 10504 10504 10505 10505 10505 10505 10503 10502 10502 10502 10502 10502 10502 10503 10503 10503 10502 10501 10499 10497 10496 10496 10496 10494 10492 10491 10489 10489 10488 10488 10487 10486 10485 10485 10484 10484 10484 10484 10485 10485 10485 10486 10486 10485 10486 10487 10487 10486 10485
10520 10520 10519 10519 10523 10522 10520 10521 10525 10527 10527 10524 10522 10519 10516 10514 10513 10511 10513 10517 10511 10503 10504 10505 10501 10499 10497 10496 10497 10497 10498 10499 10499 10496 10497 10498 10497 10497 10498 10499 10498 10499 10498 10497 10496 10495 10495 10496 10496 10496 10497 10498 10498 10498 10497 10495 10493 10492 10491 10491 10490 10489 10487 10486 10485 10483 10483 10482 10482 10481 10481 10480 10480 10480 10480 10480 10480 10480 10480 10479 10479 10479 10479 10479 10478 10477
10510 10510 10510 10511 10513 10512 10510 10512 10515 10517 10517 10515 10514 10511 10507 10504 10504 10504 10505 10506 10500 10495 10497 10497 10494 10491 10490 10489 10489 10489 10491 10493 10492 10490 10491 10491 10491 10491 10492 10492 10493 10493 10492 10491 10490 10489 10489 10489 10489 10490 10491 10491 10492 10493 10492 10490 10489 10487 10487 10486 10485 10484 10483 10482 10481 10479 10479 10478 10477 10477 10476 10476 10476 10475 10475 10475 10475 10474 10473 10472 10472 10472 10472 10471 10471 10470
10500 10499 10500 10502 10502 10501 10499 10501 10505 10507 10507 10506 10504 10500 10498 10497 10496 10496 10496 10494 10491 10489 10488 10488 10485 10483 10482 10483 10482 10481 10483 10486 10485 10484 10484 10485 10485 10485 10485 10486 10487 10487 10486 10486 10484 10483 10483 10483 10483 10484 10484 10485 10486 10486 10486 10485 10484 10483 10482 10481 10480 10479 10479 10478 10477 10476 10475 10474 10473 10472 10471 10471 10470 10470 10470 10469 10469 10467 10466 10466 10466 10466 10465 10464 10463 10462
10490 10489 10491 10491 10490 10489 10489 10490 10494 10498 10498 10496 10492 10488 10487 10488 10489 10488 10485 10483 10483 10482 10480 10479 10477 10474 10473 10475 10476 10474 10476 10477 10479 10479 10478 10479 10480 10480 10480 10480 10481 10481 10480 10480 10479 10477 10477 10476 10477 10477 10478 10478 10479 10480 10480 10480 10479 10478 10478 10477 10476 10475 10474 10473 10472 10472 10471 10470 10469 10467 10467 10466 10465 10464 10464 10463 10462 10461 10460 10460 10459 10459 10458 10458 10457 10456
10482 10481 10482 10482 10480 10479 10480 10481 10483 10486 10486 10484 10481 10478 10476 10477 10478 10478 10475 10473 10473 10472 10471 10470 10470 10467 10465 10467 10468 10468 10468 10470 10472 10473 10472 10473 10474 10474 10474 10474 10475 10475 10474 10474 10473 10472 10471 10470 10471 10471 10471 10472 10473 10474 10475 10475 10474 10473 10472 10472 10471 10471 10469 10468 10467 10466 10466 10465 10464 10463 10462 10461 10460 10459 10459 10458 10457 10456 10455 10454 10453 10452 10452 10451 10450 10449
10474 10473 10474 10474 10472 10470 10472 10472 10472 10473 10473 10470 10469 10468 10467 10465 10466 10467 10466 10464 10462 10461 10460 10461 10461 10460 10458 10459 10460 10460 10461 10463 10465 10466 10466 10467 10468 10468 10468 10469 10469 10468 10468 10468 10467 10466 10465 10465 10465 10465 10465 10466 10467 10468 10469 10469 10469 10469 10468 10467 10466 10466 10465 10464 10463 10462 10461 10460 10460 10458 10457 10456 10456 10455 10454 10453 10452 10451 10449 10448 10447 10446 10445 10444 10443 10442
10466 10465 10465 10466 10464 10462 10463 10463 10461 10461 10461 10459 10457 10457 10456 10455 10455 10456 10457 10455 10452 10450 10450 10451 10453 10452 10451 10451 10451 10452 10453 10456 10458 10458 10459 10461 10462 10462 10462 10462 10462 10462 10462 10462 10462 10461 10460 10460 10460 10460 10460 10460 10462 10463 10464 10464 10464 10464 10463 10462 10461 10461 10461 10460 10459 10458 10457 10456 10455 10454 10453 10452 10451 10450 10449 10448 10447 10445 10444 10442 10441 10440 10439 10437 10436 10436
10457 10456 10456 10456 10455 10453 10454 10454 10451 10449 10450 10449 10448 10447 10445 10443 10444 10446 10446 10445 10443 10440 10439 10441 10444 10444 10443 10443 10443 10444 10446 10448 10451 10452 10453 10453 10455 10456 10456 10457 10457 10457 10457 10457 10457 10456 10456 10455 10455 10455 10455 10455 10456 10458 10459 10459 10459 10459 10458 10458 10457 10457 10457 10456 10455 10454 10453 10452 10452 10451 10450 10449 10447 10446 10444 10442 10441 10439 10438 10436 10435 10434 10432 10431 10430 10429
10446 10446 10445 10445 10444 10443 10444 10444 10440 10438 10439 10440 10440 10438 10436 10434 10434 10435 10435 10435 10433 10430 10429 10431 10434 10435 10435 10435 10435 10436 10438 10441 10443 10445 10445 10446 10447 10449 10451 10451 10451 10450 10450 10452 10453 10452 10450 10450 10450 10450 10450 10451 10452 10454 10455 10455 10454 10454 10454 10454 10454 10453 10453 10452 10451 10450 10449 10449 10448 10447 10446 10444 10443 10441 10439 10437 10436 10434 10432 10431 10429 10428 10426 10425 10424 10423
10436 10434 10433 10432 10431 10433 10435 10433 10427 10427 10430 10432 10431 10430 10428 10426 10425 10424 10424 10423 10422 10420 10419 10421 10424 10426 10426 10426 10427 10428 10430 10433 10436 10437 10438 10438 10440 10443 10445 10444 10443 10443 10445 10446 10447 10447 10446 10445 10445 10445 10445 10446 10447 10448 10450 10450 10450 10450 10450 10450 10450 10449 10449 10448 10447 10446 10446 10445 10444 10442 10441 10440 10438 10436 10434 10433 10431 10429 10427 10426 10424 10423 10421 10420 10419 10417
10424 10422 10420 10419 10421 10425 10425 10418 10413 10417 10423 10424 10421 10420 10418 10416 10415 10414 10412 10411 10411 10410 10410 10412 10414 10416 10417 10418 10419 10420 10421 10424 10427 10429 10430 10432 10434 10436 10437 10436 10435 10437 10439 10440 10442 10442 10441 10440 10440 10440 10440 10441 10442 10443 10445 10445 10446 10446 10446 10446 10446 10445 10444 10444 10443 10442 10441 10440 10439 10438 10437 10436 10434 10432 10431 10429 10427 10425 10423 10421 10420 10418 10416 10415 10413 10412
10410 10409 10406 10407 10412 10415 10411 10403 10403 10411 10416 10414 10410 10408 10406 10403 10403 10403 10401 10398 10398 10400 10402 10403 10405 10407 10408 10408 10409 10411 10413 10415 10418 10421 10422 10424 10426 10427 10429 10429 10429 10430 10432 10434 10436 10437 10436 10435 10435 10434 10435 10436 10437 10438 10439 10440 10441 10441 10441 10441 10441 10441 10440 10440 10439 10438 10437 10436 10435 10434 10433 10431 10430 10428 10427 10425 10423 10421 10419 10417 10415 10413 10411 10410 10408 10406
10396 10395 10392 10394 10400 10403 10400 10395 10396 10402 10405 10402 10397 10394 10392 10389 10389 10390 10390 10389 10389 10390 10392 10395 10396 10397 10398 10399 10400 10402 10405 10407 10409 10412 10414 10415 10417 10419 10421 10422 10422 10424 10426 10428 10429 10429 10429 10430 10430 10429 10430 10431 10432 10433 10434 10435 10436 10436 10437 10437 10437 10437 10436 10436 10436 10435 10434 10433 10432 10430 10429 10428 10426 10425 10423 10421 10419 10417 10415 10413 10411 10409 10407 10405 10403 10401